Location: Berlin
(52.5170°N, 13.3889°E)
Time: 23:06:41
(UTC+02:00)

LES 1 - Pass Details

Date: 20 June 2025
Orbit: 2779 x 2808 km, 32.1° (Epoch: 12 July)

Event Time Altitude Azimuth Distance (km) Brightness Sun altitude
Rises 01:54:40 0° 253° (WSW) 6,572 12.0 -13.4°
Reaches altitude 10° 01:59:22 10° 245° (WSW) 5,553 11.5 -13.2°
Maximum altitude 02:12:44 34° 187° (S) 3,911 10.6 -12.7°
Drops below altitude 10° 02:26:08 10° 130° (SE) 5,567 11.7 -12.2°
Sets 02:30:53 0° 121° (ESE) 6,591 12.2 -11.9°
